Skip Page Navigation
NASA JPL Caltech
NASA Logo - Jet Propulsion Laboratory + View the NASA Portal
+ Center for Near-Earth Object Studies
JPL Home Earth Solar System Stars & Galaxies Technology
JPL Solar System Dynamics
BODIES ORBITS EPHEMERIDES TOOLS PHYSICAL DATA DISCOVERY FAQ SITE MAP
IMPORTANT: The SSD Announcement email list is now available. Major changes are coming in the near future, including possible hostname and/or URL changes. To be notified of such changes, subscribe to this email list.

Please visit this page for more details.


JPL Small-Body Database Browser
Search: [ help ]  
136679 (1995 SK26)
Classification: Main-belt Asteroid          SPK-ID: 2136679
Ephemeris | Orbit Diagram | Orbital Elements | Mission Design | Physical Parameters | Discovery Circumstances ]

[ show orbit diagram ]
Orbital Elements at Epoch 2459000.5 (2020-May-31.0) TDB
Reference: JPL 18 (heliocentric ecliptic J2000)
 Element Value Uncertainty (1-sigma)   Units 
e .1353588922667746 4.4487e-08  
a 2.375989535664267 1.2835e-08 au
q 2.054378224079304 1.0504e-07 au
i 4.819472946449645 5.1589e-06 deg
node 8.303286423977083 5.0457e-05 deg
peri 145.7671269367284 5.3426e-05 deg
M 138.4240581343852 1.6213e-05 deg
tp 2458486.131589795844
(2019-Jan-02.63158980)
6.0356e-05 TDB
period 1337.719975625382
3.66
1.084e-05
2.968e-08
d
yr
n .2691146178270235 2.1807e-09 deg/d
Q 2.69760084724923 1.4573e-08 au
  Orbit Determination Parameters
   # obs. used (total)      576  
   data-arc span      8635 days (23.64 yr)  
   first obs. used      1995-09-19  
   last obs. used      2019-05-11  
   planetary ephem.      DE431  
   SB-pert. ephem.      SB431-N16  
   condition code      0  
   norm. resid. RMS      .53119  
   source      ORB  
   producer      Otto Matic  
   solution date      2019-May-30 07:13:13  

Additional Information
 Earth MOID = 1.06618 au 
 Jupiter MOID = 2.2901 au 
 T_jup = 3.524 
[ show covariance matrix ]

Ephemeris | Orbit Diagram | Orbital Elements | Mission Design | Physical Parameters | Discovery Circumstances ]

Physical Parameter Table
Parameter Symbol Value Units Sigma Reference Notes
absolute magnitude H 16.1   n/a MPO436673  

136679 (1995 SK26)          Discovered 1995-Sep-19 by Spacewatch at Kitt Peak
Reference: 20061205/Numbers.arcLast Updated: 2006-12-13

Alternate Designations
 1995 SK26 = 2002 RS191 
Ephemeris | Orbit Diagram | Orbital Elements | Mission Design | Physical Parameters | Discovery Circumstances ]
ABOUT SSD CREDITS/AWARDS PRIVACY/COPYRIGHT GLOSSARY LINKS
FirstGov 2020-May-28 05:36 UT
(server date/time)  
NASA Home Page
Site Manager:   Ryan S. Park
Webmaster  Alan B. Chamberlin